Regional Weather Roundup
Issued by NWS Upton, NY

Current Version | Previous Version | Graphics & Text | Print | Product List | Glossary Off
Versions: 1 2 3 4 5 6 7 8 9 10 11 12 13 14 15 16 17 18 19 20 21 22 23 24 25 26 27 28 29 30 31 32 33 34 35 36 37 38 39 40 41 42 43 44 45 46 47 48 49 50

000
ASUS41 KOKX 030718
RWROKX

REGIONAL WEATHER ROUNDUP
NATIONAL WEATHER SERVICE NEW YORK NY
300 AM EDT WED JUN 03 2015

NOTE: "FAIR" INDICATES FEW OR NO CLOUDS BELOW 12,000 FEET WITH NO
SIGNIFICANT WEATHER AND/OR OBSTRUCTIONS TO VISIBILITY.

NYZ071-072-176-178-NJZ106-104-030800-
NEW YORK CITY METRO AREA


CITY           SKY/WX    TMP DP  RH WIND       PRES   REMARKS
CENTRAL PARK   CLOUDY    54  50  86 VRB5      30.20R
LAGUARDIA APRT CLOUDY    53  50  89 E8        30.17F
KENNEDY INTL   CLOUDY    53  49  86 E8        30.19R
NEWARK/LIBERTY CLOUDY    55  51  86 NE5       30.18R
BRNX BOT. GARD   N/A     52  50  93 NE1       30.20R
TETERBORO      CLOUDY    53  48  83 N6        30.17S
$$

NYZ177-179-078>081-030800-
LONG ISLAND NEW YORK

CITY           SKY/WX    TMP DP  RH WIND       PRES   REMARKS
FARMINGDALE    CLOUDY    51  49  92 E5        30.18F
ISLIP          CLOUDY    50  47  89 NE8       30.16F
SHIRLEY        CLOUDY    50  47  89 VRB3      30.19S
WESTHAMPTON    LGT RAIN  50  49  96 CALM      30.20R
MONTAUK POINT    N/A     51  46  83 N6        30.20R
$$

NYZ052-065-067-030800-
HUDSON VALLEY

CITY           SKY/WX    TMP DP  RH WIND       PRES   REMARKS
WHITE PLAINS   CLOUDY    50  48  93 NE6       30.17F
NEWBURGH       MOCLDY    48  48 100 CALM      30.16F FOG
MONTGOMERY     HAZE      48  32  53 CALM      30.18S VSB 1/2
POUGHKEEPSIE   CLOUDY    51  49  92 CALM      30.19S
ALBANY         CLOUDY    52  44  74 N3        30.22R
$$

NJZ001-105-106-008-010-013-015-019>022-104-030800-
NEW JERSEY

CITY           SKY/WX    TMP DP  RH WIND       PRES   REMARKS
NEWARK/LIBERTY CLOUDY    55  51  86 NE5       30.18R
TETERBORO      CLOUDY    53  48  83 N6        30.17S
CALDWELL       CLOUDY    52  49  89 CALM      30.18S
MORRISTOWN     CLOUDY    55  52  88 CALM      30.18R
SOMERVILLE     CLOUDY    55  52  89 CALM      30.17R
SUSSEX         MOCLDY    49  47  93 CALM      30.18S FOG
ANDOVER          N/A     53  52  96 CALM      30.17F
TRENTON        CLOUDY    53  51  93 E3        30.17F
MILLVILLE      CLOUDY    54  52  93 NE10      30.15S FOG
ATLANTIC CITY  CLOUDY    54  52  93 NE8       30.14S
WRIGHTSTOWN    CLOUDY    53  51  92 NE8       30.14F
TOMS RIVER     CLOUDY   N/A N/A N/A NE8       30.16S
BELMAR         CLOUDY    52  46  82 NE6       30.17R
$$

PAZ047>061-062-071-030800-
EASTERN PENNSYLVANIA

CITY           SKY/WX    TMP DP  RH WIND       PRES   REMARKS
PHILADELPHIA   LGT RAIN  55  50  83 NE7       30.17F
ALLENTOWN      CLOUDY    55  52  89 CALM      30.18R
SCRANTON       PTCLDY    52  49  89 E5        30.17S
$$

CTZ002-004>006-009-010-012-RIZ004-006-007-MAZ004-011-015-030800-
SOUTHERN NEW ENGLAND
 IN CT

CITY           SKY/WX    TMP DP  RH WIND       PRES   REMARKS
BRADLEY INTL   CLOUDY    48  45  89 N3        30.18S
HARTFORD       CLOUDY    47  45  93 SE8       30.19S
DANBURY        CLOUDY    50  46  86 CALM      30.20S
WTRBRY/OXFORD  CLOUDY    48  41  76 CALM      30.20S
BRIDGEPORT     CLOUDY   N/A N/A N/A MISG      30.20R
MERIDEN        FOG       47  45  93 CALM      30.20S VSB 3/4
NEW HAVEN      CLOUDY    49  47  93 CALM      30.19S
CHESTER        FAIR      46  46 100 N3        30.19S
GROTON         CLOUDY    49  45  86 N6        30.18F
WILLIMANTIC    CLOUDY    48  45  89 NE7       30.19F

 IN RI

CITY           SKY/WX    TMP DP  RH WIND       PRES   REMARKS
PROVIDENCE     CLOUDY    48  44  86 N7        30.20R
BLOCK ISLAND   CLOUDY    48  43  81 NE9       30.18S
WESTERLY       CLOUDY    48  46  93 N6        30.19S

 IN MA

CITY           SKY/WX    TMP DP  RH WIND       PRES   REMARKS
BOSTON         CLOUDY    47  44  90 N3        30.20S
WORCESTER      CLOUDY    46  43  89 W3        30.17F
WESTFIELD      CLOUDY    48  45  89 CALM      30.19S
PROVINCETOWN   CLOUDY    48  41  76 N10       30.19R
NANTUCKET      CLOUDY    51  45  79 N14       30.16R
$$

ANZ330-335-338-340-345-350-353-355-030800-
COASTAL MARINE OBSERVATIONS


STATION/POSITION TIME  SKY/WX   TEMP    WIND        PRES    VSBY  WAVE
                                AIR SEA DIR/SP/G                  HT/PER
                 (UTC)          (F)     (DEG/KT/KT) (MB)    (MI)  (FT/S)
NY HARB ENTRANCE 0650            53 56   70/ 14/ 16 1021.3          3/ 8
4S FIRE IS       0603               54                N/A           3/ 8
20S FIRE ISLAND  0650            53 56   60/ 14/ 17 1021.1          4/ 7
GREAT SOUTH BAY  0600            52 63   50/ 10/ 12   N/A
23SW MTP         0650            52 56   50/ 14/ 16 1021.2          4/ 8
HUDSON CANYON    NOT AVBL
KINGS POINT      0600            53 56              1021.5
CENTRAL LI SOUND 0700            51 56   30/  8/ 10   N/A
EASTERN LI SOUND 0600            50      20/  6/  8   N/A
ROBBINS REEF     0600            54                 1020.3
$$


>>>>>>>>>>>>>>>>>>>>>>>>>>>> KEY <<<<<<<<<<<<<<<<<<<<<<<<<<<
>                                                          <
>     SKY/WX - SKY CONDITION/PRESENT WEATHER               <
>     TMP    - TEMPERATURE IN FAHRENHEIT                   <
>     DP     - DEWPOINT IN FAHRENHEIT                      <
>     RH     - RELATIVE HUMIDITY IN PERCENT                <
>     WIND   - DIRECTION AND SPEED IN MPH                  <
>     PRES   - MEAN SEA LEVEL PRESSURE IN INCHES OF HG     <
>     WCI    - WIND CHILL INDEX                            <
>     VSB    - VISIBILITY IN MILES                         <
>     HX     - HEAT INDEX                                  <
>     TC     - TEMPERATURE IN CELSIUS                      <
>     VRB    - VARIABLE WIND DIRECTION                     <
>                                                          <
>>>>>>>>>>>>>>>>>>>>>>>>>>>> KEY <<<<<<<<<<<<<<<<<<<<<<<<<<<





USA.gov is the U.S. government's official web portal to all federal, state and local government web resources and services.